User: anonymous   Login
Location: Unspecified
(0.0000°N, 0.0000°E)
Time: 21:14:00
(UTC+00:00)
Language:

COSMOS 2251 DEB - Orbit

View from above orbital plane
View from above orbital plane
View from above satellite
View from above satellite

Ground track
Ground track

The orbit data is extracted from the following two-line orbital elements,

1 36378U 93036AZF 24055.50131814  .00926938  00000-0  62467-2 0  9991
2 36378  74.0394   7.6004 0028280 198.1830 161.8387 15.71995607778289
Epoch (UTC): 24 February 2024 12:01:53
Eccentricity: 0.0028280
inclination: 74.0394°
perigee height: 334 km
apogee height: 372 km
right ascension of ascending node: 7.6004°
argument of perigee: 198.1830°
revolutions per day: 15.71995607
mean anomaly at epoch: 161.8387°
orbit number at epoch: 77828

The dashed part of the orbit path shows where the satellite is in the earth's shadow,  

DLR